Wind_Speed
36 36 35 34 34 34 33 33 33 32 31 31 30 29 28 29 29 29 29 28 28 29 28 29 29 29 29 29 29 30 31 31 32 32 33 33 34 35
35 35 34 33 32 31 31 30 30 30 29 29 28 28 27 28 28 29 29 28 27 28 28 28 28 29 29 30 31 32 33 33 34 34 35 36 37 37
33 32 31 30 29 30 30 29 28 27 27 27 26 25 25 24 25 26 27 26 27 27 28 28 29 30 31 32 33 34 34 35 36 37 38 39 39 40
30 29 28 28 28 28 28 28 27 26 26 25 24 24 23 23 23 24 24 25 26 27 27 28 28 29 31 31 32 34 35 37 38 39 40 41 42 43
27 27 27 26 27 27 27 26 26 25 24 23 22 21 21 21 22 22 22 23 24 24 25 26 27 29 30 31 32 34 36 38 39 41 42 44 45 46
24 24 24 24 24 25 24 24 24 24 23 22 20 20 20 20 21 21 21 21 22 22 23 24 25 27 28 30 32 33 35 38 40 42 44 45 47 47
21 21 21 21 22 22 22 23 23 22 21 20 20 20 19 19 18 18 18 19 19 20 21 22 24 25 27 29 31 33 35 38 40 42 45 47 48 49
19 19 19 20 20 21 21 21 21 21 20 19 19 18 17 16 15 15 16 17 18 18 20 21 23 24 26 28 31 33 36 38 40 42 45 47 49 50
17 18 19 19 19 19 19 19 19 18 17 17 15 14 13 13 13 13 14 14 15 16 18 19 21 23 25 27 30 32 35 37 40 43 45 46 48 49
16 16 17 18 17 18 18 17 17 16 15 14 12 12 11 11 11 11 12 13 14 15 16 18 20 22 24 27 29 31 33 35 37 40 42 44 46 47
14 14 14 15 14 14 15 15 15 14 13 12 11 10 10 9 9 10 10 11 12 14 15 17 20 22 24 26 28 31 33 34 35 37 38 40 41 43
12 12 12 12 12 13 13 13 13 13 12 11 10 9 8 8 8 8 9 10 12 14 15 17 20 22 25 27 29 31 32 33 34 34 35 36 37 38
12 12 12 12 12 13 13 13 12 11 10 9 8 8 7 7 7 7 8 10 12 13 15 18 20 23 25 27 29 30 31 32 32 31 31 32 32 33
13 13 13 13 13 14 13 12 12 11 9 8 8 7 6 6 6 7 9 10 12 14 16 18 21 23 25 27 29 29 30 30 29 28 28 28 28 28
14 15 15 14 14 13 12 12 11 10 9 8 8 7 6 6 7 8 9 11 13 15 17 19 21 23 25 26 28 28 28 29 28 27 25 24 24 24
15 15 15 14 13 12 12 12 11 10 9 9 8 7 7 7 8 9 10 11 13 16 18 20 21 24 25 26 27 27 27 27 27 26 24 23 22 21
17 16 15 14 13 13 12 12 11 11 10 10 9 9 9 9 9 10 11 13 14 16 18 21 23 24 26 26 27 27 27 26 26 25 23 22 21 20
18 17 16 15 14 13 12 12 12 11 11 11 10 10 10 10 11 11 13 14 15 17 19 21 22 24 26 27 27 28 27 27 26 26 24 22 21 19
18 17 16 15 14 13 13 12 12 12 12 12 12 12 12 12 13 13 14 15 16 18 19 21 22 24 26 27 28 28 29 28 27 26 24 22 21 20
19 17 16 15 14 13 13 13 13 13 13 13 14 14 14 14 15 15 16 17 18 19 20 21 22 24 25 27 28 29 29 29 28 27 25 24 22 21
19 18 16 15 14 14 14 14 14 14 15 15 15 16 16 16 17 17 17 18 19 20 20 21 22 24 26 28 29 30 30 30 29 28 27 25 23 22
19 17 16 15 15 14 14 15 15 16 16 17 17 17 18 18 19 19 19 20 20 20 21 22 23 24 26 28 30 31 32 31 31 30 28 26 25 23
19 18 17 16 15 15 15 16 16 17 17 18 18 19 19 20 20 20 21 21 21 22 22 23 24 25 27 29 30 32 32 32 32 32 30 29 27 25
Wind_Direction
273 272 271 270 268 267 267 265 263 264 264 262 261 260 258 256 255 253 252 248 247 247 247 246 246 247 249 249 248 248 248 250 250 251 252 252 252 252
271 270 269 267 266 264 262 262 261 261 261 258 257 256 256 255 254 253 250 247 247 247 246 247 247 248 250 250 251 251 252 252 252 253 254 254 253 253
269 267 265 263 263 260 257 257 257 256 257 256 253 253 253 253 251 249 247 245 246 248 249 249 250 251 253 254 255 255 255 255 255 254 255 255 254 254
266 263 260 260 259 255 253 252 251 250 251 249 250 249 249 249 249 247 247 248 248 249 251 253 254 256 257 258 259 259 259 259 258 257 257 256 256 255
263 260 257 255 253 250 250 246 243 243 245 245 244 244 246 247 247 248 249 250 251 254 256 258 259 260 261 261 262 262 262 261 261 260 259 258 257 256
261 257 252 249 246 244 243 243 242 238 237 238 239 241 243 245 247 250 252 253 255 257 259 262 264 266 266 266 266 266 266 266 265 263 262 261 260 258
255 250 248 245 242 239 240 240 237 232 233 236 239 240 242 245 247 250 253 255 258 260 263 266 268 270 272 272 272 272 271 270 269 267 265 263 262 260
250 248 248 243 240 238 236 234 232 234 235 233 234 236 240 242 246 250 254 258 262 265 269 273 275 277 278 279 279 278 276 275 274 272 269 266 264 262
249 245 243 242 237 233 233 232 231 228 227 229 229 231 234 239 245 251 257 264 269 274 277 281 284 287 287 288 287 285 283 281 279 276 272 269 266 263
243 240 238 235 232 230 228 226 223 220 220 219 221 227 233 239 244 252 260 269 276 281 286 290 293 295 295 295 295 293 291 289 286 283 278 273 269 266
232 228 225 223 220 220 219 215 211 211 211 212 217 223 230 237 247 257 267 275 283 289 294 298 301 303 304 303 302 300 298 295 292 288 283 277 273 269
223 218 211 209 206 206 205 203 201 204 205 205 209 216 226 239 251 264 276 285 292 298 302 305 308 310 310 309 308 307 304 300 295 291 286 281 277 273
212 206 200 196 195 196 196 193 192 192 193 199 206 217 230 243 258 274 287 295 301 306 311 314 317 317 317 315 314 311 309 305 300 296 290 286 281 275
206 202 198 195 193 191 188 188 189 190 194 201 211 222 236 252 268 284 297 304 309 314 319 322 323 324 324 322 320 317 313 310 305 299 295 290 286 281
200 197 196 195 192 189 188 190 192 196 202 211 221 232 248 264 276 288 300 308 313 319 323 326 328 329 330 328 326 323 319 316 311 305 299 294 289 285
196 195 195 195 193 192 194 196 200 207 215 224 233 244 257 269 282 293 302 310 316 322 326 329 331 334 335 334 332 329 326 322 317 310 306 299 294 289
196 194 193 193 194 198 203 207 212 219 226 234 242 253 263 273 284 294 302 311 318 323 328 331 333 335 338 338 337 334 331 328 323 317 311 305 298 293
195 194 195 198 202 206 210 216 223 229 236 242 249 258 266 274 282 292 301 309 316 322 326 330 334 336 337 338 338 337 334 331 327 322 316 309 303 298
196 198 201 205 210 215 219 224 230 237 243 249 255 262 267 274 281 290 299 306 312 318 322 327 331 335 337 338 339 338 336 334 330 326 320 313 307 300
201 203 207 211 216 221 227 232 238 244 250 256 261 266 269 274 280 288 296 303 309 313 318 323 327 330 334 336 337 338 336 334 332 329 324 317 309 302
204 207 211 215 221 227 234 240 245 251 256 261 265 269 271 275 280 286 293 300 305 310 315 319 323 326 330 333 335 336 336 335 333 330 326 320 313 304
207 210 215 221 228 235 241 246 251 256 260 265 269 272 273 276 281 285 291 297 302 306 312 316 320 323 327 331 334 335 335 334 332 330 326 321 314 306
210 214 220 228 236 243 249 253 257 261 265 269 273 275 277 278 281 285 290 294 299 303 308 313 317 321 325 328 331 333 334 333 331 329 326 321 315 307
Height
5739 5739 5740 5740 5741 5742 5742 5743 5745 5746 5747 5749 5750 5752 5753 5755 5756 5758 5760 5761 5763 5766 5767 5769 5772 5773 5775 5777 5778 5780 5782 5783 5785 5786 5788 5790 5791 5793
5728 5728 5729 5729 5730 5731 5733 5734 5735 5737 5738 5740 5742 5744 5745 5747 5748 5750 5752 5754 5756 5758 5760 5762 5764 5765 5767 5769 5770 5772 5773 5774 5776 5777 5778 5780 5782 5783
5717 5718 5718 5720 5721 5722 5723 5725 5727 5729 5730 5732 5734 5736 5737 5739 5741 5743 5744 5746 5749 5751 5752 5754 5756 5757 5759 5760 5762 5763 5764 5765 5766 5767 5768 5770 5771 5773
5707 5708 5709 5710 5712 5713 5715 5717 5719 5721 5723 5724 5726 5728 5730 5732 5734 5736 5738 5740 5742 5744 5745 5747 5748 5749 5750 5751 5752 5753 5754 5755 5756 5757 5758 5759 5760 5761
5698 5699 5700 5702 5704 5705 5707 5709 5711 5714 5716 5718 5720 5722 5724 5726 5728 5730 5732 5733 5735 5737 5738 5739 5740 5741 5742 5743 5743 5744 5744 5744 5745 5745 5746 5746 5747 5748
5690 5691 5692 5694 5696 5698 5700 5702 5704 5707 5709 5712 5714 5716 5718 5720 5722 5724 5726 5727 5729 5730 5731 5732 5733 5733 5734 5734 5734 5734 5733 5733 5733 5733 5732 5733 5733 5734
5683 5685 5686 5688 5690 5692 5694 5696 5698 5701 5704 5706 5709 5711 5713 5715 5717 5718 5720 5721 5722 5723 5724 5725 5725 5725 5725 5724 5724 5723 5722 5721 5720 5719 5719 5719 5718 5719
5677 5679 5680 5682 5684 5686 5688 5691 5693 5696 5698 5701 5704 5706 5708 5710 5712 5713 5715 5716 5717 5718 5717 5717 5717 5717 5716 5715 5713 5712 5710 5709 5707 5706 5704 5704 5703 5703
5672 5673 5675 5677 5679 5681 5683 5686 5688 5691 5694 5697 5699 5701 5703 5706 5707 5708 5709 5710 5711 5711 5711 5710 5709 5708 5707 5705 5703 5700 5698 5696 5693 5691 5689 5688 5687 5687
5667 5669 5671 5672 5674 5676 5679 5681 5684 5687 5690 5693 5695 5698 5700 5701 5703 5704 5705 5705 5706 5705 5705 5704 5702 5700 5698 5695 5692 5689 5686 5683 5680 5677 5675 5673 5672 5671
5663 5665 5667 5668 5670 5673 5675 5678 5681 5684 5687 5689 5692 5694 5696 5698 5699 5700 5700 5701 5701 5700 5699 5697 5695 5692 5689 5686 5683 5679 5675 5671 5668 5664 5661 5659 5657 5656
5660 5662 5664 5665 5668 5670 5673 5675 5678 5681 5684 5687 5689 5691 5693 5694 5695 5696 5696 5696 5695 5694 5693 5691 5688 5685 5681 5678 5674 5670 5665 5661 5657 5653 5649 5646 5644 5643
5657 5659 5661 5663 5666 5668 5671 5674 5677 5679 5682 5684 5686 5688 5690 5691 5692 5692 5692 5691 5690 5689 5687 5684 5681 5678 5674 5670 5665 5661 5656 5651 5647 5642 5639 5636 5633 5632
5654 5656 5659 5661 5664 5667 5669 5672 5675 5677 5680 5682 5684 5685 5687 5688 5688 5688 5687 5687 5685 5684 5681 5678 5675 5671 5667 5662 5658 5652 5648 5643 5638 5634 5630 5627 5624 5622
5651 5654 5657 5659 5662 5665 5668 5670 5673 5675 5677 5679 5681 5682 5683 5684 5684 5684 5683 5682 5681 5678 5676 5673 5670 5666 5661 5656 5651 5646 5641 5636 5631 5627 5623 5620 5617 5615
5648 5651 5654 5657 5660 5663 5666 5668 5671 5673 5675 5677 5678 5679 5680 5680 5680 5680 5679 5678 5676 5674 5671 5668 5664 5660 5656 5650 5645 5640 5635 5630 5625 5620 5617 5613 5611 5608
5645 5649 5652 5655 5658 5661 5663 5666 5668 5670 5672 5673 5674 5675 5676 5676 5676 5675 5674 5673 5671 5669 5666 5663 5659 5655 5650 5645 5640 5635 5630 5625 5620 5615 5611 5608 5606 5603
5643 5646 5649 5652 5655 5658 5660 5663 5665 5666 5668 5669 5670 5671 5672 5672 5672 5671 5670 5668 5666 5664 5661 5658 5654 5650 5646 5641 5636 5630 5625 5620 5615 5611 5607 5604 5601 5599
5640 5643 5646 5649 5652 5655 5657 5659 5661 5663 5664 5665 5666 5667 5667 5667 5667 5666 5665 5663 5661 5659 5656 5653 5649 5645 5641 5636 5631 5626 5621 5616 5611 5607 5603 5599 5596 5594
5636 5639 5643 5646 5648 5651 5653 5655 5657 5659 5660 5661 5662 5662 5662 5662 5662 5661 5660 5658 5656 5654 5651 5648 5645 5641 5637 5632 5627 5622 5617 5612 5607 5602 5598 5595 5592 5590
5632 5636 5639 5642 5645 5647 5649 5651 5653 5655 5656 5656 5657 5657 5657 5657 5656 5656 5654 5653 5651 5649 5646 5643 5640 5636 5632 5628 5623 5618 5613 5607 5602 5598 5593 5590 5587 5585
5629 5632 5635 5638 5641 5643 5645 5647 5648 5650 5651 5651 5651 5652 5651 5651 5651 5650 5648 5647 5645 5643 5640 5638 5634 5631 5627 5623 5618 5613 5608 5603 5597 5593 5589 5585 5582 5579
5625 5628 5632 5634 5637 5639 5640 5642 5643 5644 5645 5646 5646 5646 5645 5645 5644 5643 5642 5641 5639 5637 5634 5632 5629 5626 5622 5617 5613 5608 5603 5598 5592 5588 5583 5579 5576 5573